* Astronomy

Members Login
Post Info TOPIC: OPS 8180 (RADCAT) satellite re-entry


L

Posts: 131433
Date:
RE: OPS 8180 (RADCAT) satellite re-entry
Permalink  
 


Update:
The OPS 8180 (RADCAT) satellite re-entered the Earths atmosphere on the 2nd August, 2012 @ 07:40 GMT ± 20 minutes.

Inclination: 98.52°
Revolution Number:  29869
Predicted Location:   10.9°S, 172.7°W



__________________


L

Posts: 131433
Date:
Permalink  
 

Update:
The OPS 8180 (RADCAT) satellite is predicted to re-enter the Earths atmosphere on the 2nd August, 2012 @ 07:30 GMT ± 2 hours.

OPS 8180 (RADCAT)
1 06212U 72076A   12215.28214499  .36036354  30631-5  24257-3 0  8342
2 06212 098.5166 073.2296 0009803 349.6048 011.3691 16.53521115298685

Period:       88.47 minutes
Inclination: 98.52°
Apogee:     204 km
Perigee:     194 km 
Revolution Number:  29870
Predicted Location:   28.1°S, 176.7°W



__________________


L

Posts: 131433
Date:
Permalink  
 

Update:
The OPS 8180 (RADCAT) satellite is predicted to re-enter the Earths atmosphere on the 2nd August, 2012 @ 08:30 GMT ± 7 hours.

OPS 8180 (RADCAT)
1 06212U 72076A   12214.85556859  .06831113  32437-5  95504-3 0  8312
2 06212 098.5343 072.6404 0010059 260.6824 100.5448 16.34920532298614

Period:       88.47 minutes
Inclination: 98.53°
Apogee:     204 km
Perigee:     194 km 
Revolution Number:  29870
Predicted Location:   41.4°N, 11.5°W



__________________


L

Posts: 131433
Date:
Permalink  
 

Update:
The OPS 8180 (RADCAT) satellite is predicted to re-enter the Earths atmosphere on the 2nd August, 2012 @ 14:11 GMT ± 15 hours.

OPS 8180 (RADCAT)
1 06212U 72076A   12213.31744184  .02680565  31428-5  13342-2 0  8230
2 06212 098.5371 070.5971 0006059 247.8487 112.2274 16.20836314298366

Period:       89.10 minutes
Inclination: 98.54°
Apogee:     235 km
Perigee:     225 km 
Revolution Number:  29869
Predicted Location:   9.3°S 89.7°W

 



__________________


L

Posts: 131433
Date:
Permalink  
 

Update:
The OPS 8180 (RADCAT) satellite is predicted to re-enter the Earths atmosphere on the 2nd August, 2012 @ 16:00 GMT ± 24 hours.

OPS 8180 (RADCAT)
1 06212U 72076A   12211.89441359 +.01634494 +22564-2 +13571-2 0 08173
2 06212 098.5395 068.7379 0008079 232.1416 127.9949 16.14406803298132

Period:       89.28 minutes
Inclination: 98.54°
Apogee:     243 km
Perigee:     235 km 
Revolution Number:  29868
Predicted Location:   81.5°N, 166.4°E



__________________


L

Posts: 131433
Date:
Permalink  
 

Update:
The OPS 8180 (RADCAT) satellite is predicted to re-enter the Earths atmosphere on the 2nd August, 2012 @ 11:00 GMT ± 48 hours.

OPS 8180 (RADCAT)
1 06212U 72076A   12210.90171921 +.01113372 +78402-3 +11220-2 0 08134
2 06212 098.5418 067.4499 0006261 220.7884 139.3333 16.11174867297974

Period:       89.32 minutes
Inclination: 98.54°
Apogee:     244 km
Perigee:     238 km 
Revolution Number:  29870
Predicted Location:   52.6°S, 328.8°E



__________________


L

Posts: 131433
Date:
Permalink  
 

The OPS 8180 (RADCAT) satellite that was launched on the 2nd October, 1972, from the Vandenberg AFB is predicted to re-enter the Earths atmosphere on the 2nd August, 2012 @ --:-- GMT ± -- hours.

OPS 8180 (RADCAT)
1 06212U 72076A   12201.23071808  .00456780  90900-4  97528-3 0  7813
2 06212 098.5528 055.0506 0005607 212.3373 147.7513 15.98602224296420

Period:       90.15 minutes
Inclination: 98.55°
Apogee:     285 km
Perigee:     279 km 
Revolution Number:  -
Predicted Location:   -

See more  



__________________
Page 1 of 1  sorted by
 
Quick Reply

Please log in to post quick replies.



Create your own FREE Forum
Report Abuse
Powered by ActiveBoard